Time,TemperatureF,DewpointF,PressureIn,WindDirection,WindDirectionDegrees,WindSpeedMPH,WindSpeedGustMPH,Humidity,HourlyPrecipIn,Conditions,Clouds,dailyrainin,SoftwareType,DateUTC
2013-03-29 00:00:00,31.8,25.7,30.05,South,189,2.0,5.0,78,0.00,OVC,,0.00,WeatherDisplay:10.37,2013-03-29 04:00:00,
2013-03-29 00:05:00,32.1,26.0,30.06,SW,225,3.5,3.5,78,0.00,OVC,,0.00,WeatherDisplay:10.37,2013-03-29 04:05:00,
2013-03-29 00:10:00,32.2,26.1,30.06,South,180,3.5,3.5,78,0.00,OVC,,0.00,WeatherDisplay:10.37,2013-03-29 04:10:00,
2013-03-29 00:11:00,32.1,26.0,30.06,South,180,3.5,3.5,78,0.00,OVC,,0.00,WeatherDisplay:10.37,2013-03-29 04:11:00,
2013-03-29 00:17:00,31.9,29.3,30.06,South,180,3.5,3.5,90,0.00,OVC,,0.00,WeatherDisplay:10.37,2013-03-29 04:17:00,
2013-03-29 00:22:00,31.8,29.2,30.06,SSW,202,3.5,3.5,90,0.00,OVC,,0.00,WeatherDisplay:10.37,2013-03-29 04:22:00,
2013-03-29 00:27:00,31.7,29.1,30.06,SSW,202,1.7,1.7,90,0.00,OVC,,0.00,WeatherDisplay:10.37,2013-03-29 04:27:00,
2013-03-29 00:32:00,31.8,29.2,30.06,West,270,0.0,0.0,90,0.00,OVC,,0.00,WeatherDisplay:10.37,2013-03-29 04:32:00,
2013-03-29 00:38:00,31.7,29.1,30.06,WSW,248,0.0,0.0,90,0.00,OVC,,0.00,WeatherDisplay:10.37,2013-03-29 04:38:00,
2013-03-29 00:43:00,31.7,29.1,30.06,ESE,112,3.5,3.5,90,0.00,OVC,,0.00,WeatherDisplay:10.37,2013-03-29 04:43:00,
2013-03-29 00:48:00,31.8,29.2,30.06,ESE,112,1.2,0.0,90,0.00,OVC,,0.00,WeatherDisplay:10.37,2013-03-29 04:48:00,
2013-03-29 00:53:00,32.2,29.6,30.06,SW,225,3.5,3.5,90,0.00,OVC,,0.00,WeatherDisplay:10.37,2013-03-29 04:53:00,
2013-03-29 00:58:00,32.5,29.8,30.06,WSW,248,1.2,1.2,90,0.00,OVC,,0.00,WeatherDisplay:10.37,2013-03-29 04:58:00,
2013-03-29 01:03:00,32.5,29.9,30.06,South,180,1.2,0.0,90,0.00,OVC,,0.00,WeatherDisplay:10.37,2013-03-29 05:03:00,
2013-03-29 01:08:00,32.8,30.2,30.06,South,180,0.0,0.0,90,0.00,OVC,,0.00,WeatherDisplay:10.37,2013-03-29 05:08:00,
2013-03-29 01:13:00,32.6,30.0,30.06,SSW,202,3.5,3.5,90,0.00,OVC,,0.00,WeatherDisplay:10.37,2013-03-29 05:13:00,
2013-03-29 01:18:00,32.4,29.8,30.06,West,270,0.0,0.0,90,0.00,OVC,,0.00,WeatherDisplay:10.37,2013-03-29 05:18:00,
2013-03-29 01:23:00,32.1,29.5,30.06,West,270,0.0,0.0,90,0.00,OVC,,0.00,WeatherDisplay:10.37,2013-03-29 05:23:00,
2013-03-29 01:28:00,32.3,29.7,30.06,South,180,0.0,0.0,90,0.00,OVC,,0.00,WeatherDisplay:10.37,2013-03-29 05:28:00,
2013-03-29 01:33:00,32.2,29.6,30.06,SSW,202,0.0,0.0,90,0.00,OVC,,0.00,WeatherDisplay:10.37,2013-03-29 05:33:00,
2013-03-29 01:38:00,32.1,29.5,30.06,South,180,0.0,0.0,90,0.00,OVC,,0.00,WeatherDisplay:10.37,2013-03-29 05:38:00,
2013-03-29 01:44:00,32.1,29.5,30.06,SSW,202,0.0,0.0,90,0.00,OVC,,0.00,WeatherDisplay:10.37,2013-03-29 05:44:00,
2013-03-29 01:49:00,31.8,29.2,30.06,SSE,158,2.9,2.9,90,0.00,OVC,,0.00,WeatherDisplay:10.37,2013-03-29 05:49:00,
2013-03-29 01:54:00,31.8,29.2,30.06,SSW,202,1.5,1.5,90,0.00,OVC,,0.00,WeatherDisplay:10.37,2013-03-29 05:54:00,
2013-03-29 01:59:00,31.7,29.1,30.06,SW,225,0.0,0.0,90,0.00,OVC,,0.00,WeatherDisplay:10.37,2013-03-29 05:59:00,
2013-03-29 02:04:00,31.4,28.8,30.06,WSW,248,0.0,0.0,90,0.00,OVC,,0.00,WeatherDisplay:10.37,2013-03-29 06:04:00,
2013-03-29 02:09:00,31.4,28.8,30.06,South,180,0.0,0.0,90,0.00,OVC,,0.00,WeatherDisplay:10.37,2013-03-29 06:09:00,
2013-03-29 02:14:00,31.3,28.7,30.06,SSW,202,0.0,0.0,90,0.00,OVC,,0.00,WeatherDisplay:10.37,2013-03-29 06:14:00,
2013-03-29 02:19:00,31.2,28.6,30.06,SW,225,0.0,0.0,90,0.00,OVC,,0.00,WeatherDisplay:10.37,2013-03-29 06:19:00,
2013-03-29 02:24:00,31.0,28.5,30.06,SSW,202,3.5,3.5,90,0.00,OVC,,0.00,WeatherDisplay:10.37,2013-03-29 06:24:00,
2013-03-29 02:29:00,31.0,28.4,30.06,SSW,202,4.6,4.6,90,0.00,OVC,,0.00,WeatherDisplay:10.37,2013-03-29 06:29:00,
2013-03-29 02:34:00,30.9,28.3,30.06,SSE,158,3.5,3.5,90,0.00,OVC,,0.00,WeatherDisplay:10.37,2013-03-29 06:34:00,
2013-03-29 02:39:00,30.9,28.3,30.06,SSW,202,3.5,3.5,90,0.00,OVC,,0.00,WeatherDisplay:10.37,2013-03-29 06:39:00,
2013-03-29 02:44:00,30.8,28.2,30.06,SSW,202,1.2,0.0,90,0.00,OVC,,0.00,WeatherDisplay:10.37,2013-03-29 06:44:00,
2013-03-29 02:49:00,30.8,28.2,30.06,SSW,202,1.2,1.2,90,0.00,OVC,,0.00,WeatherDisplay:10.37,2013-03-29 06:49:00,
2013-03-29 02:54:00,30.7,28.1,30.06,SW,225,0.0,0.0,90,0.00,OVC,,0.00,WeatherDisplay:10.37,2013-03-29 06:54:00,
2013-03-29 02:59:00,30.5,27.9,30.06,SW,225,0.0,0.0,90,0.00,OVC,,0.00,WeatherDisplay:10.37,2013-03-29 06:59:00,
2013-03-29 03:04:00,30.5,27.9,30.06,South,180,0.0,0.0,90,0.00,OVC,,0.00,WeatherDisplay:10.37,2013-03-29 07:04:00,
2013-03-29 03:09:00,30.6,28.0,30.06,West,270,3.5,3.5,90,0.00,OVC,,0.00,WeatherDisplay:10.37,2013-03-29 07:09:00,
2013-03-29 03:14:00,30.7,28.1,30.06,SSW,202,4.4,4.4,90,0.00,OVC,,0.00,WeatherDisplay:10.37,2013-03-29 07:14:00,
2013-03-29 03:19:00,30.8,28.2,30.06,SW,225,3.5,3.5,90,0.00,OVC,,0.00,WeatherDisplay:10.37,2013-03-29 07:19:00,
2013-03-29 03:24:00,30.6,28.0,30.06,SE,135,1.2,0.0,90,0.00,OVC,,0.00,WeatherDisplay:10.37,2013-03-29 07:24:00,
2013-03-29 03:29:00,30.4,27.8,30.06,SW,225,0.0,0.0,90,0.00,OVC,,0.00,WeatherDisplay:10.37,2013-03-29 07:29:00,
2013-03-29 03:34:00,30.5,28.0,30.06,ESE,112,0.0,0.0,90,0.00,OVC,,0.00,WeatherDisplay:10.37,2013-03-29 07:34:00,
2013-03-29 03:39:00,30.5,27.9,30.06,South,180,4.6,4.6,90,0.00,OVC,,0.00,WeatherDisplay:10.37,2013-03-29 07:39:00,
2013-03-29 03:44:00,30.7,28.1,30.06,SSW,202,4.6,4.6,90,0.00,OVC,,0.00,WeatherDisplay:10.37,2013-03-29 07:44:00,
2013-03-29 03:49:00,30.8,28.2,30.06,SW,225,4.6,4.6,90,0.00,OVC,,0.00,WeatherDisplay:10.37,2013-03-29 07:49:00,
2013-03-29 03:54:00,30.6,28.0,30.06,SW,225,4.6,4.6,90,0.00,OVC,,0.00,WeatherDisplay:10.37,2013-03-29 07:54:00,
2013-03-29 03:59:00,30.6,28.0,30.06,West,270,3.5,3.5,90,0.00,OVC,,0.00,WeatherDisplay:10.37,2013-03-29 07:59:00,
2013-03-29 04:04:00,30.7,28.1,30.06,SW,225,3.5,3.5,90,0.00,OVC,,0.00,WeatherDisplay:10.37,2013-03-29 08:04:00,
2013-03-29 04:09:00,30.8,28.2,30.06,SSW,202,4.6,4.6,90,0.00,OVC,,0.00,WeatherDisplay:10.37,2013-03-29 08:09:00,
2013-03-29 04:14:00,30.7,28.1,30.06,South,180,4.1,4.1,90,0.00,OVC,,0.00,WeatherDisplay:10.37,2013-03-29 08:14:00,
2013-03-29 04:19:00,30.6,28.0,30.06,SSW,202,3.5,3.5,90,0.00,OVC,,0.00,WeatherDisplay:10.37,2013-03-29 08:19:00,
2013-03-29 04:24:00,30.3,27.7,30.06,WNW,292,3.5,3.5,90,0.00,OVC,,0.00,WeatherDisplay:10.37,2013-03-29 08:24:00,
2013-03-29 04:29:00,30.3,27.7,30.06,West,270,1.2,1.2,90,0.00,OVC,,0.00,WeatherDisplay:10.37,2013-03-29 08:29:00,
2013-03-29 04:34:00,30.4,27.8,30.06,East,90,4.6,4.6,90,0.00,OVC,,0.00,WeatherDisplay:10.37,2013-03-29 08:34:00,
2013-03-29 04:39:00,30.1,27.6,30.06,WNW,292,3.5,3.5,90,0.00,OVC,,0.00,WeatherDisplay:10.37,2013-03-29 08:39:00,
2013-03-29 04:44:00,30.0,27.5,30.06,SW,225,3.5,3.5,90,0.00,OVC,,0.00,WeatherDisplay:10.37,2013-03-29 08:44:00,
2013-03-29 04:49:00,29.6,27.1,30.06,WSW,248,1.2,0.0,90,0.00,OVC,,0.00,WeatherDisplay:10.37,2013-03-29 08:49:00,
2013-03-29 04:54:00,29.5,26.9,30.06,WSW,248,0.0,0.0,90,0.00,OVC,,0.00,WeatherDisplay:10.37,2013-03-29 08:54:00,
2013-03-29 04:59:00,29.4,26.8,30.06,SW,225,0.0,0.0,90,0.00,OVC,,0.00,WeatherDisplay:10.37,2013-03-29 08:59:00,
2013-03-29 05:04:00,29.3,26.7,30.06,SE,135,0.0,0.0,90,0.00,OVC,,0.00,WeatherDisplay:10.37,2013-03-29 09:04:00,
2013-03-29 05:09:00,29.1,26.6,30.06,West,270,0.0,0.0,90,0.00,OVC,,0.00,WeatherDisplay:10.37,2013-03-29 09:09:00,
2013-03-29 05:14:00,29.1,26.6,30.06,SSW,202,4.6,4.6,90,0.00,OVC,,0.00,WeatherDisplay:10.37,2013-03-29 09:14:00,
2013-03-29 05:19:00,29.1,26.5,30.06,NW,315,0.0,0.0,90,0.00,OVC,,0.00,WeatherDisplay:10.37,2013-03-29 09:19:00,
2013-03-29 05:24:00,28.7,26.2,30.06,SE,135,3.0,3.0,90,0.00,OVC,,0.00,WeatherDisplay:10.37,2013-03-29 09:24:00,
2013-03-29 05:29:00,28.7,26.1,30.06,South,180,3.5,3.5,90,0.00,OVC,,0.00,WeatherDisplay:10.37,2013-03-29 09:29:00,
2013-03-29 05:34:00,28.7,26.2,30.06,South,180,0.0,0.0,90,0.00,OVC,,0.00,WeatherDisplay:10.37,2013-03-29 09:34:00,
2013-03-29 05:39:00,28.3,25.8,30.06,West,270,0.0,0.0,90,0.00,OVC,,0.00,WeatherDisplay:10.37,2013-03-29 09:39:00,
2013-03-29 05:44:00,28.1,25.6,30.06,ESE,112,3.5,3.5,90,0.00,OVC,,0.00,WeatherDisplay:10.37,2013-03-29 09:44:00,
2013-03-29 05:49:00,28.0,25.4,30.06,SW,225,0.0,0.0,90,0.00,OVC,,0.00,WeatherDisplay:10.37,2013-03-29 09:49:00,
2013-03-29 05:54:00,27.7,25.2,30.06,NNE,22,1.6,1.6,90,0.00,OVC,,0.00,WeatherDisplay:10.37,2013-03-29 09:54:00,
2013-03-29 05:59:00,27.8,25.3,30.06,West,270,4.6,4.6,90,0.00,OVC,,0.00,WeatherDisplay:10.37,2013-03-29 09:59:00,
2013-03-29 06:04:00,28.2,25.6,30.06,East,90,3.5,3.5,90,0.00,OVC,,0.00,WeatherDisplay:10.37,2013-03-29 10:04:00,
2013-03-29 06:09:00,28.0,25.5,30.06,SW,225,3.5,3.5,90,0.00,OVC,,0.00,WeatherDisplay:10.37,2013-03-29 10:09:00,
2013-03-29 06:14:00,27.9,25.3,30.06,SW,225,1.2,1.2,90,0.00,OVC,,0.00,WeatherDisplay:10.37,2013-03-29 10:14:00,
2013-03-29 06:19:00,27.6,25.1,30.06,SW,225,3.5,3.5,90,0.00,OVC,,0.00,WeatherDisplay:10.37,2013-03-29 10:19:00,
2013-03-29 06:24:00,27.6,25.0,30.06,South,180,0.0,0.0,90,0.00,OVC,,0.00,WeatherDisplay:10.37,2013-03-29 10:24:00,
2013-03-29 06:29:00,27.1,24.6,30.06,SSE,158,0.0,0.0,90,0.00,OVC,,0.00,WeatherDisplay:10.37,2013-03-29 10:29:00,
2013-03-29 06:34:00,27.4,24.8,30.06,South,180,1.2,1.2,90,0.00,OVC,,0.00,WeatherDisplay:10.37,2013-03-29 10:34:00,
2013-03-29 06:39:00,27.5,25.0,30.06,South,180,3.5,3.5,90,0.00,OVC,,0.00,WeatherDisplay:10.37,2013-03-29 10:39:00,
2013-03-29 06:44:00,27.4,24.8,30.06,West,270,1.2,1.2,90,0.00,OVC,,0.00,WeatherDisplay:10.37,2013-03-29 10:44:00,
2013-03-29 06:49:00,27.6,25.0,30.06,SE,135,0.0,0.0,90,0.00,OVC,,0.00,WeatherDisplay:10.37,2013-03-29 10:49:00,
2013-03-29 06:54:00,28.0,25.4,30.06,SSW,202,2.9,2.9,90,0.00,OVC,,0.00,WeatherDisplay:10.37,2013-03-29 10:54:00,
2013-03-29 06:59:00,28.2,25.7,30.06,WSW,248,3.5,3.5,90,0.00,OVC,,0.00,WeatherDisplay:10.37,2013-03-29 10:59:00,
2013-03-29 07:04:00,28.4,25.8,30.06,SSW,202,1.2,1.3,90,0.00,OVC,,0.00,WeatherDisplay:10.37,2013-03-29 11:04:00,
2013-03-29 07:09:00,28.9,26.3,30.06,SSW,202,0.0,0.0,90,0.00,OVC,,0.00,WeatherDisplay:10.37,2013-03-29 11:09:00,
2013-03-29 07:14:00,29.4,26.8,30.06,South,180,3.0,3.0,90,0.00,OVC,,0.00,WeatherDisplay:10.37,2013-03-29 11:14:00,
2013-03-29 07:20:00,29.8,27.2,30.06,South,180,1.2,0.0,90,0.00,OVC,,0.00,WeatherDisplay:10.37,2013-03-29 11:20:00,
2013-03-29 07:25:00,30.2,27.6,30.06,SW,225,3.5,3.5,90,0.00,OVC,,0.00,WeatherDisplay:10.37,2013-03-29 11:25:00,
2013-03-29 07:30:00,30.5,27.9,30.06,SW,225,1.6,1.6,90,0.00,OVC,,0.00,WeatherDisplay:10.37,2013-03-29 11:30:00,
2013-03-29 07:35:00,31.3,28.7,30.06,SW,225,1.2,1.2,90,0.00,OVC,,0.00,WeatherDisplay:10.37,2013-03-29 11:35:00,
2013-03-29 07:40:00,31.5,28.9,30.06,SW,225,0.0,0.0,90,0.00,OVC,,0.00,WeatherDisplay:10.37,2013-03-29 11:40:00,
2013-03-29 07:45:00,32.3,29.7,30.06,WSW,248,3.5,3.5,90,0.00,OVC,,0.00,WeatherDisplay:10.37,2013-03-29 11:45:00,
2013-03-29 07:50:00,32.7,30.1,30.06,SW,225,3.5,3.5,90,0.00,OVC,,0.00,WeatherDisplay:10.37,2013-03-29 11:50:00,
2013-03-29 07:55:00,33.0,30.3,30.06,SE,135,0.0,0.0,90,0.00,OVC,,0.00,WeatherDisplay:10.37,2013-03-29 11:55:00,
2013-03-29 08:00:00,33.6,31.0,30.06,SW,225,0.0,0.0,90,0.00,OVC,,0.00,WeatherDisplay:10.37,2013-03-29 12:00:00,
2013-03-29 08:05:00,34.4,31.8,30.08,South,180,0.0,0.0,90,0.00,BKN,,0.00,WeatherDisplay:10.37,2013-03-29 12:05:00,
2013-03-29 08:10:00,35.3,32.7,30.08,SW,225,0.0,0.0,90,0.00,BKN,,0.00,WeatherDisplay:10.37,2013-03-29 12:10:00,
2013-03-29 08:15:00,36.2,33.6,30.08,West,270,0.0,0.0,90,0.00,BKN,,0.00,WeatherDisplay:10.37,2013-03-29 12:15:00,
2013-03-29 08:20:00,36.7,34.1,30.08,NNW,338,0.0,0.0,90,0.00,BKN,,0.00,WeatherDisplay:10.37,2013-03-29 12:20:00,
2013-03-29 08:25:00,37.8,35.1,30.08,WNW,292,0.0,0.0,90,0.00,BKN,,0.00,WeatherDisplay:10.37,2013-03-29 12:25:00,
2013-03-29 08:30:00,38.2,35.6,30.08,NW,315,3.5,3.5,90,0.00,BKN,,0.00,WeatherDisplay:10.37,2013-03-29 12:30:00,
2013-03-29 08:35:00,38.2,35.6,30.08,NE,45,1.2,1.2,90,0.00,BKN,,0.00,WeatherDisplay:10.37,2013-03-29 12:35:00,
2013-03-29 08:40:00,38.6,36.0,30.08,NNW,338,0.0,0.0,90,0.00,BKN,,0.00,WeatherDisplay:10.37,2013-03-29 12:40:00,
2013-03-29 08:45:00,39.5,36.8,30.08,NE,45,4.6,4.6,90,0.00,BKN,,0.00,WeatherDisplay:10.37,2013-03-29 12:45:00,
2013-03-29 08:50:00,39.9,37.2,30.08,ENE,68,3.3,0.0,90,0.00,BKN,,0.00,WeatherDisplay:10.37,2013-03-29 12:50:00,
2013-03-29 08:55:00,40.1,37.4,30.08,NE,45,10.4,10.4,90,0.00,BKN,,0.00,WeatherDisplay:10.37,2013-03-29 12:55:00,
2013-03-29 09:00:00,39.6,36.9,30.08,North,360,9.2,9.2,90,0.00,BKN,,0.00,WeatherDisplay:10.37,2013-03-29 13:00:00,
2013-03-29 09:05:00,38.9,36.2,30.08,WNW,292,12.7,12.7,90,0.00,BKN,,0.00,WeatherDisplay:10.37,2013-03-29 13:05:00,
2013-03-29 09:10:00,38.7,36.0,30.08,WNW,292,8.1,8.1,90,0.00,BKN,,0.00,WeatherDisplay:10.37,2013-03-29 13:10:00,
2013-03-29 09:15:00,38.6,35.9,30.08,North,360,16.1,16.1,90,0.00,BKN,,0.00,WeatherDisplay:10.37,2013-03-29 13:15:00,
2013-03-29 09:20:00,38.6,35.9,30.08,NNW,338,10.4,10.4,90,0.00,BKN,,0.00,WeatherDisplay:10.37,2013-03-29 13:20:00,
2013-03-29 09:25:00,39.0,36.3,30.08,North,360,5.8,5.8,90,0.00,BKN,,0.00,WeatherDisplay:10.37,2013-03-29 13:25:00,
2013-03-29 09:30:00,39.3,36.6,30.08,NNE,22,9.2,9.2,90,0.00,BKN,,0.00,WeatherDisplay:10.37,2013-03-29 13:30:00,
2013-03-29 09:35:00,39.9,37.2,30.08,SSE,158,6.9,6.9,90,0.00,BKN,,0.00,WeatherDisplay:10.37,2013-03-29 13:35:00,
2013-03-29 09:40:00,40.3,37.6,30.08,WNW,292,6.9,6.9,90,0.00,BKN,,0.00,WeatherDisplay:10.37,2013-03-29 13:40:00,
2013-03-29 09:45:00,41.3,38.6,30.08,NE,45,5.8,5.8,90,0.00,BKN,,0.00,WeatherDisplay:10.37,2013-03-29 13:45:00,
2013-03-29 09:50:00,41.2,38.5,30.08,NNW,338,9.2,9.2,90,0.00,BKN,,0.00,WeatherDisplay:10.37,2013-03-29 13:50:00,
2013-03-29 09:55:00,41.9,39.2,30.08,North,360,9.2,9.2,90,0.00,BKN,,0.00,WeatherDisplay:10.37,2013-03-29 13:55:00,
2013-03-29 10:00:00,42.5,39.8,30.08,NNW,338,11.4,11.4,90,0.00,BKN,,0.00,WeatherDisplay:10.37,2013-03-29 14:00:00,
2013-03-29 10:05:00,42.3,39.6,30.08,WNW,292,8.1,8.1,90,0.00,OVC,,0.00,WeatherDisplay:10.37,2013-03-29 14:05:00,
2013-03-29 10:10:00,42.2,33.4,30.08,NNE,22,8.1,8.1,71,0.00,OVC,,0.00,WeatherDisplay:10.37,2013-03-29 14:10:00,
2013-03-29 10:15:00,42.2,33.5,30.08,NW,315,11.5,11.5,71,0.00,OVC,,0.00,WeatherDisplay:10.37,2013-03-29 14:15:00,
2013-03-29 10:20:00,41.0,32.3,30.08,North,360,11.5,11.5,71,0.00,OVC,,0.00,WeatherDisplay:10.37,2013-03-29 14:20:00,
2013-03-29 10:25:00,41.1,32.4,30.08,North,360,9.2,9.2,71,0.00,OVC,,0.00,WeatherDisplay:10.37,2013-03-29 14:25:00,
2013-03-29 10:30:00,41.7,19.7,30.08,WNW,292,11.5,11.5,41,0.00,OVC,,0.00,WeatherDisplay:10.37,2013-03-29 14:30:00,
2013-03-29 10:35:00,42.3,21.4,30.08,ESE,112,10.4,10.4,43,0.00,OVC,,0.00,WeatherDisplay:10.37,2013-03-29 14:35:00,
2013-03-29 10:40:00,42.8,21.8,30.08,North,360,12.7,12.7,43,0.00,OVC,,0.00,WeatherDisplay:10.37,2013-03-29 14:40:00,
2013-03-29 10:45:00,42.1,21.2,30.08,NW,315,19.6,19.6,43,0.00,OVC,,0.00,WeatherDisplay:10.37,2013-03-29 14:45:00,
2013-03-29 10:50:00,42.8,21.8,30.08,NNW,338,16.1,16.1,43,0.00,OVC,,0.00,WeatherDisplay:10.37,2013-03-29 14:50:00,
2013-03-29 10:55:00,44.3,34.8,30.08,NW,315,12.7,12.7,69,0.00,OVC,,0.00,WeatherDisplay:10.37,2013-03-29 14:55:00,
2013-03-29 11:00:00,44.9,35.4,30.08,NNE,22,13.8,13.8,69,0.00,OVC,,0.00,WeatherDisplay:10.37,2013-03-29 15:00:00,
2013-03-29 11:05:00,44.6,31.6,30.08,NNW,338,11.5,11.5,60,0.00,BKN,,0.00,WeatherDisplay:10.37,2013-03-29 15:05:00,
2013-03-29 11:10:00,44.5,31.5,30.08,NW,315,12.7,12.7,60,0.00,BKN,,0.00,WeatherDisplay:10.37,2013-03-29 15:10:00,
2013-03-29 11:15:00,45.8,32.7,30.08,West,270,12.7,12.7,60,0.00,BKN,,0.00,WeatherDisplay:10.37,2013-03-29 15:15:00,
2013-03-29 11:20:00,45.2,32.1,30.08,NW,315,12.7,12.7,60,0.00,BKN,,0.00,WeatherDisplay:10.37,2013-03-29 15:20:00,
2013-03-29 11:25:00,45.2,32.1,30.08,NW,315,12.7,12.7,60,0.00,OVC,,0.00,WeatherDisplay:10.37,2013-03-29 15:25:00,
2013-03-29 11:30:00,44.5,31.5,30.08,WNW,292,15.4,15.4,60,0.00,OVC,,0.00,WeatherDisplay:10.37,2013-03-29 15:30:00,
2013-03-29 11:35:00,45.6,32.5,30.08,NNE,22,10.4,10.4,60,0.00,OVC,,0.00,WeatherDisplay:10.37,2013-03-29 15:35:00,
2013-03-29 11:40:00,46.3,33.2,30.08,West,270,15.0,15.0,60,0.00,OVC,,0.00,WeatherDisplay:10.37,2013-03-29 15:40:00,
2013-03-29 11:45:00,46.2,33.0,30.08,West,270,12.7,12.7,60,0.00,OVC,,0.00,WeatherDisplay:10.37,2013-03-29 15:45:00,
2013-03-29 11:50:00,46.1,33.0,30.08,NW,315,15.0,15.0,60,0.00,OVC,,0.00,WeatherDisplay:10.37,2013-03-29 15:50:00,
2013-03-29 11:55:00,46.7,33.5,30.08,West,270,15.0,15.0,60,0.00,OVC,,0.00,WeatherDisplay:10.37,2013-03-29 15:55:00,
2013-03-29 12:00:00,46.6,33.5,30.08,NW,315,16.3,16.3,60,0.00,OVC,,0.00,WeatherDisplay:10.37,2013-03-29 16:00:00,
2013-03-29 12:05:00,46.4,31.5,30.06,East,90,9.2,9.2,56,0.00,OVC,,0.00,WeatherDisplay:10.37,2013-03-29 16:05:00,
2013-03-29 12:10:00,46.1,31.3,30.06,NE,45,15.0,15.0,56,0.00,OVC,,0.00,WeatherDisplay:10.37,2013-03-29 16:10:00,
2013-03-29 12:15:00,44.8,30.1,30.06,NW,315,17.3,17.3,56,0.00,OVC,,0.00,WeatherDisplay:10.37,2013-03-29 16:15:00,
2013-03-29 12:20:00,43.4,28.8,30.06,West,270,19.6,19.6,56,0.00,OVC,,0.00,WeatherDisplay:10.37,2013-03-29 16:20:00,
2013-03-29 12:25:00,43.5,28.9,30.06,West,270,13.8,13.8,56,0.00,OVC,,0.00,WeatherDisplay:10.37,2013-03-29 16:25:00,
2013-03-29 12:30:00,44.2,29.5,30.06,NW,315,10.4,10.4,56,0.00,OVC,,0.00,WeatherDisplay:10.37,2013-03-29 16:30:00,
2013-03-29 12:35:00,44.7,30.0,30.06,North,360,17.3,17.3,56,0.00,OVC,,0.00,WeatherDisplay:10.37,2013-03-29 16:35:00,
2013-03-29 12:40:00,44.5,29.8,30.06,WNW,292,23.0,23.0,56,0.00,OVC,,0.00,WeatherDisplay:10.37,2013-03-29 16:40:00,
2013-03-29 12:45:00,44.2,29.5,30.06,NW,315,19.4,19.4,56,0.00,OVC,,0.00,WeatherDisplay:10.37,2013-03-29 16:45:00,
2013-03-29 12:50:00,44.3,29.5,30.06,West,270,13.6,13.6,56,0.00,OVC,,0.00,WeatherDisplay:10.37,2013-03-29 16:50:00,
2013-03-29 12:55:00,43.4,28.8,30.06,North,360,21.9,21.9,56,0.00,OVC,,0.00,WeatherDisplay:10.37,2013-03-29 16:55:00,
2013-03-29 13:00:00,43.1,28.4,30.06,NW,315,10.4,10.4,56,0.00,OVC,,0.00,WeatherDisplay:10.37,2013-03-29 17:00:00,
2013-03-29 13:05:00,44.2,29.5,30.05,NW,315,8.1,8.1,56,0.00,OVC,,0.00,WeatherDisplay:10.37,2013-03-29 17:05:00,
2013-03-29 13:10:00,45.2,30.4,30.05,SW,225,6.9,6.9,56,0.00,OVC,,0.00,WeatherDisplay:10.37,2013-03-29 17:10:00,
2013-03-29 13:15:00,48.0,33.1,30.05,SW,225,8.1,8.1,56,0.00,OVC,,0.00,WeatherDisplay:10.37,2013-03-29 17:15:00,
2013-03-29 13:20:00,49.6,34.5,30.05,ESE,112,11.5,11.5,56,0.00,OVC,,0.00,WeatherDisplay:10.37,2013-03-29 17:20:00,
2013-03-29 13:25:00,48.7,33.7,30.05,North,360,16.1,16.1,56,0.00,OVC,,0.00,WeatherDisplay:10.37,2013-03-29 17:25:00,
2013-03-29 13:30:00,47.8,32.9,30.05,WNW,292,15.0,15.0,56,0.00,OVC,,0.00,WeatherDisplay:10.37,2013-03-29 17:30:00,
2013-03-29 13:35:00,45.7,30.9,30.05,NNW,338,13.8,13.8,56,0.00,OVC,,0.00,WeatherDisplay:10.37,2013-03-29 17:35:00,
2013-03-29 13:40:00,45.6,30.8,30.05,West,270,12.7,12.7,56,0.00,OVC,,0.00,WeatherDisplay:10.37,2013-03-29 17:40:00,
2013-03-29 13:45:00,46.3,31.5,30.05,NNE,22,12.7,12.7,56,0.00,OVC,,0.00,WeatherDisplay:10.37,2013-03-29 17:45:00,
2013-03-29 13:50:00,47.0,32.1,30.05,SE,135,10.4,10.4,56,0.00,OVC,,0.00,WeatherDisplay:10.37,2013-03-29 17:50:00,
2013-03-29 13:55:00,47.2,32.3,30.05,ENE,68,12.7,12.7,56,0.00,OVC,,0.00,WeatherDisplay:10.37,2013-03-29 17:55:00,
2013-03-29 14:00:00,46.4,31.5,30.05,North,360,13.8,13.8,56,0.00,OVC,,0.00,WeatherDisplay:10.37,2013-03-29 18:00:00,
2013-03-29 14:05:00,47.7,32.8,30.05,WNW,292,12.7,12.7,56,0.00,OVC,,0.00,WeatherDisplay:10.37,2013-03-29 18:05:00,
2013-03-29 14:10:00,47.1,32.2,30.05,NNW,338,12.9,12.9,56,0.00,OVC,,0.00,WeatherDisplay:10.37,2013-03-29 18:10:00,
2013-03-29 14:15:00,46.2,31.4,30.05,North,360,15.0,15.0,56,0.00,OVC,,0.00,WeatherDisplay:10.37,2013-03-29 18:15:00,
2013-03-29 14:20:00,46.2,31.3,30.05,North,360,15.0,15.0,56,0.00,OVC,,0.00,WeatherDisplay:10.37,2013-03-29 18:20:00,
2013-03-29 14:25:00,46.2,31.3,30.05,NNE,22,10.4,10.4,56,0.00,OVC,,0.00,WeatherDisplay:10.37,2013-03-29 18:25:00,
2013-03-29 14:30:00,46.4,31.5,30.05,NE,45,10.4,10.4,56,0.00,OVC,,0.00,WeatherDisplay:10.37,2013-03-29 18:30:00,
2013-03-29 14:35:00,45.6,30.8,30.05,North,360,15.0,15.0,56,0.00,OVC,,0.00,WeatherDisplay:10.37,2013-03-29 18:35:00,
2013-03-29 14:40:00,44.7,30.0,30.05,North,360,13.8,13.8,56,0.00,OVC,,0.00,WeatherDisplay:10.37,2013-03-29 18:40:00,
2013-03-29 14:45:00,45.2,30.4,30.05,North,360,9.2,9.2,56,0.00,OVC,,0.00,WeatherDisplay:10.37,2013-03-29 18:45:00,
2013-03-29 14:50:00,45.2,30.4,30.05,NNE,22,9.2,9.2,56,0.00,OVC,,0.00,WeatherDisplay:10.37,2013-03-29 18:50:00,
2013-03-29 14:55:00,44.7,26.2,30.05,NW,315,6.9,6.9,48,0.00,OVC,,0.00,WeatherDisplay:10.37,2013-03-29 18:55:00,
2013-03-29 15:00:00,44.9,37.8,30.05,NNE,22,6.9,6.9,76,0.00,OVC,,0.00,WeatherDisplay:10.37,2013-03-29 19:00:00,
2013-03-29 15:05:00,46.2,38.7,30.02,North,360,7.7,7.7,75,0.00,OVC,,0.00,WeatherDisplay:10.37,2013-03-29 19:05:00,
2013-03-29 15:10:00,46.6,39.1,30.02,NW,315,4.6,4.6,75,0.00,OVC,,0.00,WeatherDisplay:10.37,2013-03-29 19:10:00,
2013-03-29 15:15:00,47.9,40.3,30.02,NE,45,3.5,3.5,75,0.00,OVC,,0.00,WeatherDisplay:10.37,2013-03-29 19:15:00,
2013-03-29 15:20:00,48.9,44.6,30.02,South,180,3.5,3.5,85,0.00,OVC,,0.00,WeatherDisplay:10.37,2013-03-29 19:20:00,
2013-03-29 15:25:00,47.3,41.1,30.02,NNE,22,10.4,10.4,79,0.00,OVC,,0.00,WeatherDisplay:10.37,2013-03-29 19:25:00,
2013-03-29 15:30:00,45.7,14.4,30.02,NNW,338,16.1,16.1,28,0.00,OVC,,0.00,WeatherDisplay:10.37,2013-03-29 19:30:00,
2013-03-29 15:35:00,44.3,36.8,30.02,SE,135,21.9,21.9,75,0.00,OVC,,0.00,WeatherDisplay:10.37,2013-03-29 19:35:00,
2013-03-29 15:40:00,43.6,36.2,30.02,NW,315,9.2,9.2,75,0.00,OVC,,0.00,WeatherDisplay:10.37,2013-03-29 19:40:00,
2013-03-29 15:45:00,42.1,34.8,30.02,NNW,338,20.7,20.7,75,0.00,OVC,,0.00,WeatherDisplay:10.37,2013-03-29 19:45:00,
2013-03-29 15:50:00,41.7,34.7,30.02,WNW,292,13.8,13.8,76,0.00,OVC,,0.00,WeatherDisplay:10.37,2013-03-29 19:50:00,
2013-03-29 15:55:00,41.2,39.8,30.02,NW,315,12.7,12.7,95,0.00,OVC,,0.00,WeatherDisplay:10.37,2013-03-29 19:55:00,
2013-03-29 16:00:00,40.1,38.8,30.02,NW,315,17.3,17.3,95,0.00,OVC,,0.00,WeatherDisplay:10.37,2013-03-29 20:00:00,
2013-03-29 16:05:00,39.1,34.4,30.03,North,360,16.1,16.1,83,0.00,OVC,,0.00,WeatherDisplay:10.37,2013-03-29 20:05:00,
2013-03-29 16:10:00,39.0,34.3,30.03,WNW,292,10.4,10.4,83,0.00,OVC,,0.00,WeatherDisplay:10.37,2013-03-29 20:10:00,
2013-03-29 16:15:00,39.2,34.5,30.03,SW,225,6.9,6.9,83,0.00,OVC,,0.00,WeatherDisplay:10.37,2013-03-29 20:15:00,
2013-03-29 16:20:00,39.6,34.9,30.03,West,270,6.9,6.9,83,0.00,OVC,,0.00,WeatherDisplay:10.37,2013-03-29 20:20:00,
2013-03-29 16:25:00,40.0,35.2,30.03,NNW,338,8.1,8.1,83,0.00,OVC,,0.00,WeatherDisplay:10.37,2013-03-29 20:25:00,
2013-03-29 16:30:00,40.2,35.5,30.03,WNW,292,4.6,4.6,83,0.00,OVC,,0.00,WeatherDisplay:10.37,2013-03-29 20:30:00,
2013-03-29 16:35:00,41.5,36.7,30.03,WNW,292,3.5,3.5,83,0.00,OVC,,0.00,WeatherDisplay:10.37,2013-03-29 20:35:00,
2013-03-29 16:40:00,42.6,37.8,30.03,North,360,4.6,4.6,83,0.00,OVC,,0.00,WeatherDisplay:10.37,2013-03-29 20:40:00,
2013-03-29 16:45:00,43.5,38.7,30.03,West,270,8.1,8.1,83,0.00,OVC,,0.00,WeatherDisplay:10.37,2013-03-29 20:45:00,
2013-03-29 16:50:00,43.6,38.8,30.03,West,270,3.5,3.5,83,0.00,OVC,,0.00,WeatherDisplay:10.37,2013-03-29 20:50:00,
2013-03-29 16:55:00,44.3,39.4,30.03,WNW,292,5.8,5.8,83,0.00,OVC,,0.00,WeatherDisplay:10.37,2013-03-29 20:55:00,
2013-03-29 17:00:00,44.2,39.4,30.03,North,360,4.6,4.6,83,0.00,OVC,,0.00,WeatherDisplay:10.37,2013-03-29 21:00:00,
2013-03-29 17:05:00,44.3,39.5,30.02,NW,315,9.2,9.2,83,0.00,OVC,,0.00,WeatherDisplay:10.37,2013-03-29 21:05:00,
2013-03-29 17:10:00,44.0,35.5,30.02,NW,315,8.1,8.1,72,0.00,OVC,,0.00,WeatherDisplay:10.37,2013-03-29 21:10:00,
2013-03-29 17:15:00,43.0,34.3,30.02,NW,315,8.1,8.1,71,0.00,OVC,,0.00,WeatherDisplay:10.37,2013-03-29 21:15:00,
2013-03-29 17:20:00,43.0,34.3,30.02,WNW,292,9.2,9.2,71,0.00,OVC,,0.00,WeatherDisplay:10.37,2013-03-29 21:20:00,
2013-03-29 17:25:00,42.2,33.4,30.02,West,270,16.1,16.1,71,0.00,OVC,,0.00,WeatherDisplay:10.37,2013-03-29 21:25:00,
2013-03-29 17:30:00,42.3,33.6,30.02,North,360,12.7,12.7,71,0.00,OVC,,0.00,WeatherDisplay:10.37,2013-03-29 21:30:00,
2013-03-29 17:35:00,42.3,33.6,30.02,NW,315,10.4,10.4,71,0.00,OVC,,0.00,WeatherDisplay:10.37,2013-03-29 21:35:00,
2013-03-29 17:40:00,42.1,33.3,30.02,North,360,8.1,8.1,71,0.00,OVC,,0.00,WeatherDisplay:10.37,2013-03-29 21:40:00,
2013-03-29 17:45:00,41.7,33.0,30.02,West,270,8.1,8.1,71,0.00,OVC,,0.00,WeatherDisplay:10.37,2013-03-29 21:45:00,
2013-03-29 17:50:00,41.7,33.0,30.02,NW,315,11.5,11.5,71,0.00,OVC,,0.00,WeatherDisplay:10.37,2013-03-29 21:50:00,
2013-03-29 17:55:00,41.8,33.1,30.02,West,270,4.6,4.6,71,0.00,OVC,,0.00,WeatherDisplay:10.37,2013-03-29 21:55:00,
2013-03-29 18:00:00,41.8,33.1,30.02,North,360,6.9,6.9,71,0.00,OVC,,0.00,WeatherDisplay:10.37,2013-03-29 22:00:00,
2013-03-29 18:06:00,41.2,32.5,30.02,North,360,9.2,9.2,71,0.00,OVC,,0.00,WeatherDisplay:10.37,2013-03-29 22:06:00,
2013-03-29 18:11:00,41.2,28.7,30.02,WNW,292,6.5,6.5,61,0.00,OVC,,0.00,WeatherDisplay:10.37,2013-03-29 22:11:00,
2013-03-29 18:17:00,40.8,28.0,30.02,NW,315,9.2,9.2,60,0.00,OVC,,0.00,WeatherDisplay:10.37,2013-03-29 22:17:00,
2013-03-29 18:22:00,40.9,28.1,30.02,North,360,3.5,3.5,60,0.00,OVC,,0.00,WeatherDisplay:10.37,2013-03-29 22:22:00,
2013-03-29 18:27:00,40.9,28.1,30.02,NNW,338,9.2,9.2,60,0.00,OVC,,0.00,WeatherDisplay:10.37,2013-03-29 22:27:00,
2013-03-29 18:32:00,40.9,28.1,30.02,NNW,338,4.6,4.6,60,0.00,OVC,,0.00,WeatherDisplay:10.37,2013-03-29 22:32:00,
2013-03-29 18:37:00,40.5,27.7,30.02,WNW,292,12.7,12.7,60,0.00,OVC,,0.00,WeatherDisplay:10.37,2013-03-29 22:37:00,
2013-03-29 18:42:00,40.4,27.6,30.02,North,360,5.8,5.8,60,0.00,OVC,,0.00,WeatherDisplay:10.37,2013-03-29 22:42:00,
2013-03-29 18:47:00,40.4,27.6,30.02,NW,315,5.1,5.1,60,0.00,OVC,,0.00,WeatherDisplay:10.37,2013-03-29 22:47:00,
2013-03-29 18:54:00,39.9,27.1,30.02,NW,315,6.9,6.9,60,0.00,OVC,,0.00,WeatherDisplay:10.37,2013-03-29 22:54:00,
2013-03-29 19:00:00,39.3,26.5,30.02,NW,304,15.0,23.0,60,0.00,OVC,,0.00,WeatherDisplay:10.37,2013-03-29 23:00:00,
2013-03-29 19:05:00,38.4,25.7,30.02,West,270,11.5,11.5,60,0.00,OVC,,0.00,WeatherDisplay:10.37,2013-03-29 23:05:00,
2013-03-29 19:10:00,38.1,25.4,30.02,South,180,5.8,5.8,60,0.00,OVC,,0.00,WeatherDisplay:10.37,2013-03-29 23:10:00,
2013-03-29 19:15:00,37.7,25.0,30.02,West,270,4.6,4.6,60,0.00,OVC,,0.00,WeatherDisplay:10.37,2013-03-29 23:15:00,
2013-03-29 19:22:00,37.2,24.6,30.02,West,270,3.5,3.5,60,0.00,OVC,,0.00,WeatherDisplay:10.37,2013-03-29 23:22:00,
2013-03-29 19:27:00,37.0,24.3,30.02,WSW,248,0.0,0.0,60,0.00,OVC,,0.00,WeatherDisplay:10.37,2013-03-29 23:27:00,
2013-03-29 19:32:00,36.7,24.1,30.02,SSW,202,0.0,0.0,60,0.00,OVC,,0.00,WeatherDisplay:10.37,2013-03-29 23:32:00,
2013-03-29 19:37:00,36.7,24.1,30.02,SW,225,0.0,0.0,60,0.00,OVC,,0.00,WeatherDisplay:10.37,2013-03-29 23:37:00,
2013-03-29 19:43:00,37.0,24.4,30.02,SSW,202,0.0,0.0,60,0.00,OVC,,0.00,WeatherDisplay:10.37,2013-03-29 23:43:00,
2013-03-29 19:48:00,36.6,24.0,30.02,WSW,248,0.0,0.0,60,0.00,OVC,,0.00,WeatherDisplay:10.37,2013-03-29 23:48:00,
2013-03-29 19:53:00,36.8,24.2,30.02,SW,225,1.2,1.2,60,0.00,OVC,,0.00,WeatherDisplay:10.37,2013-03-29 23:53:00,
2013-03-29 19:58:00,36.5,23.9,30.02,SE,135,3.5,3.5,60,0.00,OVC,,0.00,WeatherDisplay:10.37,2013-03-29 23:58:00,
2013-03-29 20:03:00,37.0,24.3,30.02,SSW,202,3.5,3.5,60,0.00,OVC,,0.00,WeatherDisplay:10.37,2013-03-30 00:03:00,
2013-03-29 20:08:00,36.5,23.9,30.02,SW,225,3.5,3.5,60,0.00,OVC,,0.00,WeatherDisplay:10.37,2013-03-30 00:08:00,
2013-03-29 20:13:00,36.3,23.8,30.02,South,180,0.0,0.0,60,0.00,OVC,,0.00,WeatherDisplay:10.37,2013-03-30 00:13:00,
2013-03-29 20:18:00,36.0,23.4,30.02,WSW,248,0.0,0.0,60,0.00,OVC,,0.00,WeatherDisplay:10.37,2013-03-30 00:18:00,
2013-03-29 20:23:00,36.1,23.5,30.02,West,270,11.7,11.7,60,0.00,OVC,,0.00,WeatherDisplay:10.37,2013-03-30 00:23:00,
2013-03-29 20:28:00,35.4,22.9,30.02,WSW,248,4.6,4.6,60,0.00,OVC,,0.00,WeatherDisplay:10.37,2013-03-30 00:28:00,
2013-03-29 20:33:00,35.2,22.7,30.02,SSE,158,3.5,3.5,60,0.00,OVC,,0.01,WeatherDisplay:10.37,2013-03-30 00:33:00,
2013-03-29 20:38:00,35.3,22.8,30.02,SSW,202,3.5,3.5,60,0.01,RA,,0.01,WeatherDisplay:10.37,2013-03-30 00:38:00,
2013-03-29 20:43:00,35.3,22.8,30.02,SSW,202,3.5,3.5,60,0.01,RA,,0.01,WeatherDisplay:10.37,2013-03-30 00:43:00,
2013-03-29 20:49:00,35.2,22.6,30.02,SSW,202,0.0,0.0,60,0.01,OVC,,0.01,WeatherDisplay:10.37,2013-03-30 00:49:00,
2013-03-29 20:54:00,35.2,22.7,30.02,South,180,0.0,0.0,60,0.01,OVC,,0.01,WeatherDisplay:10.37,2013-03-30 00:54:00,
2013-03-29 21:00:00,35.0,22.5,30.02,SSW,208,2.0,8.0,60,0.00,OVC,,0.01,WeatherDisplay:10.37,2013-03-30 01:00:00,
2013-03-29 21:05:00,35.0,22.5,30.06,South,180,1.2,1.2,60,0.01,OVC,,0.01,WeatherDisplay:10.37,2013-03-30 01:05:00,
2013-03-29 21:10:00,34.8,29.9,30.06,SSW,202,3.5,3.5,82,0.01,OVC,,0.01,WeatherDisplay:10.37,2013-03-30 01:10:00,
2013-03-29 21:15:00,34.8,30.5,30.06,South,180,3.5,3.5,84,0.01,OVC,,0.01,WeatherDisplay:10.37,2013-03-30 01:15:00,
2013-03-29 21:20:00,34.8,30.4,30.06,South,180,1.5,1.5,84,0.01,OVC,,0.01,WeatherDisplay:10.37,2013-03-30 01:20:00,
2013-03-29 21:26:00,34.5,30.2,30.06,SSW,202,3.5,3.5,84,0.01,OVC,,0.01,WeatherDisplay:10.37,2013-03-30 01:26:00,
2013-03-29 21:32:00,34.5,30.1,30.06,South,180,1.5,1.5,84,0.01,OVC,,0.01,WeatherDisplay:10.37,2013-03-30 01:32:00,
2013-03-29 21:37:00,34.4,30.1,30.06,SW,225,1.2,1.2,84,0.00,OVC,,0.01,WeatherDisplay:10.37,2013-03-30 01:37:00,
2013-03-29 21:43:00,34.3,30.0,30.06,SW,225,0.0,0.0,84,0.00,OVC,,0.01,WeatherDisplay:10.37,2013-03-30 01:43:00,
2013-03-29 21:48:00,34.3,29.9,30.06,SSW,202,0.0,0.0,84,0.00,OVC,,0.01,WeatherDisplay:10.37,2013-03-30 01:48:00,
2013-03-29 21:53:00,34.2,29.9,30.06,SW,225,0.0,0.0,84,0.00,OVC,,0.01,WeatherDisplay:10.37,2013-03-30 01:53:00,
2013-03-29 21:58:00,33.9,29.6,30.06,SW,225,0.0,0.0,84,0.00,OVC,,0.01,WeatherDisplay:10.37,2013-03-30 01:58:00,
2013-03-29 22:03:00,33.7,29.4,30.07,SW,225,0.0,0.0,84,0.00,OVC,,0.01,WeatherDisplay:10.37,2013-03-30 02:03:00,
2013-03-29 22:08:00,33.4,29.3,30.07,South,180,0.0,0.0,85,0.00,OVC,,0.01,WeatherDisplay:10.37,2013-03-30 02:08:00,
2013-03-29 22:13:00,33.1,29.3,30.07,SW,225,0.0,0.0,86,0.00,OVC,,0.01,WeatherDisplay:10.37,2013-03-30 02:13:00,
2013-03-29 22:18:00,32.8,29.3,30.07,SW,225,0.0,0.0,87,0.00,OVC,,0.01,WeatherDisplay:10.37,2013-03-30 02:18:00,
2013-03-29 22:23:00,32.7,29.3,30.07,SW,225,3.5,3.5,87,0.00,OVC,,0.01,WeatherDisplay:10.37,2013-03-30 02:23:00,
2013-03-29 22:28:00,32.6,29.2,30.07,SSE,158,0.0,0.3,87,0.00,OVC,,0.01,WeatherDisplay:10.37,2013-03-30 02:28:00,
2013-03-29 22:33:00,32.7,29.6,30.07,SW,225,1.2,0.0,88,0.00,OVC,,0.01,WeatherDisplay:10.37,2013-03-30 02:33:00,
2013-03-29 22:38:00,32.7,29.6,30.07,SE,135,0.0,0.0,88,0.00,OVC,,0.01,WeatherDisplay:10.37,2013-03-30 02:38:00,
2013-03-29 22:44:00,32.7,29.5,30.07,SSW,202,0.0,0.0,88,0.00,OVC,,0.01,WeatherDisplay:10.37,2013-03-30 02:44:00,
2013-03-29 22:49:00,32.9,29.7,30.07,SW,225,1.2,0.0,88,0.00,OVC,,0.01,WeatherDisplay:10.37,2013-03-30 02:49:00,
2013-03-29 22:54:00,32.8,29.7,30.07,SSW,202,0.0,0.0,88,0.00,OVC,,0.01,WeatherDisplay:10.37,2013-03-30 02:54:00,
2013-03-29 22:59:00,32.9,29.7,30.07,SW,225,0.0,0.0,88,0.00,OVC,,0.01,WeatherDisplay:10.37,2013-03-30 02:59:00,
2013-03-29 23:04:00,33.0,29.8,30.07,SW,225,1.2,1.2,88,0.00,OVC,,0.01,WeatherDisplay:10.37,2013-03-30 03:04:00,
2013-03-29 23:09:00,33.1,29.9,30.07,SW,225,0.0,0.0,88,0.00,OVC,,0.01,WeatherDisplay:10.37,2013-03-30 03:09:00,
2013-03-29 23:14:00,32.8,29.6,30.07,SW,225,0.0,0.0,88,0.00,OVC,,0.01,WeatherDisplay:10.37,2013-03-30 03:14:00,
2013-03-29 23:19:00,32.8,29.6,30.07,SSW,202,0.0,0.0,88,0.00,OVC,,0.01,WeatherDisplay:10.37,2013-03-30 03:19:00,
2013-03-29 23:24:00,32.6,29.5,30.07,SW,225,0.0,0.0,88,0.00,OVC,,0.01,WeatherDisplay:10.37,2013-03-30 03:24:00,
2013-03-29 23:29:00,32.4,29.2,30.07,SSW,202,0.0,0.0,88,0.00,OVC,,0.01,WeatherDisplay:10.37,2013-03-30 03:29:00,
2013-03-29 23:35:00,32.3,29.2,30.07,SW,225,0.0,0.0,88,0.00,OVC,,0.01,WeatherDisplay:10.37,2013-03-30 03:35:00,
2013-03-29 23:40:00,32.2,29.1,30.07,SSW,202,0.0,0.0,88,0.00,OVC,,0.01,WeatherDisplay:10.37,2013-03-30 03:40:00,
2013-03-29 23:45:00,32.2,29.1,30.07,SW,225,0.0,0.0,88,0.00,OVC,,0.01,WeatherDisplay:10.37,2013-03-30 03:45:00,
2013-03-29 23:50:00,32.1,28.9,30.07,South,180,3.5,3.5,88,0.00,OVC,,0.01,WeatherDisplay:10.37,2013-03-30 03:50:00,
2013-03-29 23:55:00,31.9,28.8,30.07,SW,225,0.0,0.0,88,0.00,OVC,,0.01,WeatherDisplay:10.37,2013-03-30 03:55:00,